Regional Weather Roundup
Issued by NWS

Home | Current Version | Previous Version | Graphics & Text | Print | Product List | Glossary On
Versions: 1 2 3 4 5 6 7 8 9 10 11 12 13 14 15 16 17 18 19 20 21 22 23 24 25 26 27 28 29 30 31 32 33 34 35 36 37 38 39 40 41 42 43 44 45 46 47 48 49 50
080
ASUS43 KDMX 300303
RWRIA

WEATHER ROUNDUP FOR IOWA
NATIONAL WEATHER SERVICE DES MOINES IA
1000 PM CDT THU SEP 29 2016

NOTE: "FAIR" INDICATES FEW OR NO CLOUDS BELOW 12,000 FEET WITH NO
SIGNIFICANT WEATHER AND/OR OBSTRUCTIONS TO VISIBILITY.

* - THESE STATIONS ARE NOT NWS STATIONS...THUS NOT UNDER NWS
QUALITY CONTROL.  THEY ALSO DO NOT REPORT WEATHER SUCH
AS PRECIPITATION OR FOG.

IAZ001>003-012>014-020>022-031>034-043>046-300400-
   NORTHWEST IOWA

CITY           SKY/WX    TMP DP  RH WIND       PRES   REMARKS
CARROLL *      CLEAR     54  48  82 N7        30.34S
CHEROKEE *     CLEAR     51  48  90 CALM      30.36S
DENISON *      CLEAR     50  48  93 CALM      30.33S
LE MARS *      CLEAR     61  46  59 E9        30.36R
SHELDON *      CLEAR     48  46  93 CALM      30.36R
SIOUX CITY     CLEAR     57  47  69 E6        30.35R
SPENCER        CLEAR     51  46  83 NE5       30.37R
STORM LAKE *   CLEAR     55  48  76 NE8       30.36S
$$

IAZ055>058-069>071-079>083-090>094-300400-
   SOUTHWEST IOWA

CITY           SKY/WX    TMP DP  RH WIND       PRES   REMARKS
ATLANTIC *     CLEAR     52  46  82 CALM      30.34R
AUDUBON *      CLEAR     50  45  81 CALM      30.35S
CLARINDA *       N/A     54  50  87 MISG      30.34S FOG
COUNCIL BLFS * CLEAR     59  45  58 NE7       30.34R
CRESTON *      CLEAR     57  48  72 N9        30.33S
HARLAN  *      CLEAR     50  46  87 N3        30.38R
LAMONI         CLEAR     56  50  80 N8        30.30S
RED OAK *      CLEAR     52  48  87 CALM      30.33S
SHENANDOAH *   CLEAR     54  50  87 CALM      30.34R
$$

IAZ047>049-059>061-072>074-084-300400-
   CENTRAL IOWA

CITY           SKY/WX    TMP DP  RH WIND       PRES   REMARKS
AMES           CLEAR     56  49  77 N7        30.33R
ANKENY *         N/A    N/A N/A N/A MISG        N/A
BOONE *        CLEAR     57  46  67 NE9       30.32S HAZE
CHARITON *       N/A     57  48  72 N7        30.29S
DES MOINES     CLEAR     63  47  55 NE10      30.31S
GRINNELL*      CLEAR     61  49  65 N7        30.32R
KNOXVILLE *    CLEAR     63  46  55 NE6       30.29R
MARSHALLTOWN   CLEAR     57  50  77 NE8       30.32R
NEWTON *       CLEAR     59  48  67 NE8       30.31R
PELLA *        CLEAR     57  47  69 N5        30.31S
PERRY *          N/A     56  48  74 N6        30.33S
$$

IAZ004>006-015-016-023>025-035-036-300400-
   NORTH CENTRAL IOWA

CITY           SKY/WX    TMP DP  RH WIND       PRES   REMARKS
ALGONA *       CLEAR     54  48  82 NE6       30.37S
CLARION *      CLEAR     54  48  82 NE6       30.35S
ESTHERVILLE    CLEAR     46  45  96 N5        30.37S
FORT DODGE *   CLEAR     55  45  67 N6        30.36S
MASON CITY     CLEAR     48  45  89 N5        30.38R
FOREST CITY *    N/A     52  45  76 N3        30.37R
WEBSTER CITY * CLEAR     55  48  76 N7        30.33R
IOWA FALLS *     N/A     58  49  73 NE6       30.36R
$$

IAZ007>011-017>019-026>030-037>042-050>054-066-300400-
   NORTHEAST IOWA

CITY           SKY/WX    TMP DP  RH WIND       PRES   REMARKS
CEDAR RAPIDS   CLEAR     57  50  77 N7        30.29S
CHARLES CITY * CLEAR     57  50  77 NE7       30.36S
CLINTON *      CLEAR     58  54  86 N6        30.27S
DECORAH *      CLEAR     59  54  82 N6        30.34S
DUBUQUE        CLEAR     60  49  66 NE10      30.29F
MONTICELLO *   CLEAR     59  48  67 CALM      30.29S
OELWEIN *      CLEAR     57  52  82 N7        30.34R
WATERLOO       CLEAR     58  50  75 N9        30.32F
$$

IAZ064-065-067-068-078-300400-
   EAST CENTRAL IOWA

CITY           SKY/WX    TMP DP  RH WIND       PRES   REMARKS
DAVENPORT      CLEAR     59  52  77 NE6       30.26S
IOWA CITY      PTCLDY    63  49  60 N8        30.29S
MUSCATINE *    PTCLDY    64  54  68 NE7       30.27S
QUAD CITIES    CLEAR     64  52  64 NE7       30.25F
$$

IAZ062-063-075>077-085>089-095>099-300400-
   SOUTHEAST IOWA

CITY           SKY/WX    TMP DP  RH WIND       PRES   REMARKS
BURLINGTON     CLOUDY    65  55  70 NE12      30.24S
FAIRFIELD *    CLOUDY    63  48  59 N8        30.27S
FORT MADISON *   N/A     64  54  68 NE7       30.26S
KEOKUK *       PTCLDY    64  55  72 NE12G17   30.24R
OSKALOOSA *      N/A     58  48  69 NE7       30.29S
OTTUMWA        CLEAR     60  47  61 N8        30.28S
WASHINGTON *     N/A    N/A N/A N/A MISG        N/A
$$

ABBREVIATIONS USED IN REMARKS
   TC - TEMPERATURES IN CELSIUS
  WCI - WIND CHILL INDEX
   HX - HEAT INDEX
  VSB - VISIBILITY
$$





USA.gov is the U.S. government's official web portal to all federal, state and local government web resources and services.